Regional Weather Roundup
Issued by NWS

Home | Current Version | Previous Version | Graphics & Text | Print | Product List | Glossary Off
Versions: 1 2 3 4 5 6 7 8 9 10 11 12 13 14 15 16 17 18 19 20 21 22 23 24 25 26 27 28 29 30 31 32 33 34 35 36 37 38 39 40 41 42 43 44 45 46 47 48 49 50

000
ASUS45 KSLC 290310
RWRUT

UTAH REGIONAL WEATHER ROUNDUP
NATIONAL WEATHER SERVICE SALT LAKE CITY UT
800 PM MST SUN DEC 28 2014

UTZ001>011-023>025-290400-

NORTHERN UTAH

CITY           SKY/WX    TMP DP  RH WIND       PRES   REMARKS
BRIGHAM CITY   CLOUDY    30  26  86 S9        30.06S WCI  22
HILL AFB       LGT SNOW  27  27 100 S8        30.04S FOG     WCI  18
LOGAN          CLOUDY    25  21  85 CALM      30.04S
OGDEN          LGT SNOW  27  26  96 S7        30.04S FOG     WCI  19
PROVO AIRPORT  LGT SNOW  27  25  93 CALM      30.06F
SALT LAKE CITY LGT SNOW  28  27  96 SE5       30.05F FOG     WCI  23
VERNAL         CLOUDY    21  15  78 W3        30.00R
WENDOVER       CLOUDY    28  23  80 S5        30.06S WCI  23
HEBER CITY     LGT SNOW  25  23  93 CALM      30.01R VSB 1
WEST JORDAN    CLOUDY    27  27 100 SE5       30.05F WCI  21

$$

UTZ012>022-026-027-290400-

SOUTHERN/CENTRAL UTAH

CITY           SKY/WX    TMP DP  RH WIND       PRES   REMARKS
BLANDING       CLEAR     20  12  71 N8        30.12S WCI  10
BRYCE CANYON   CLEAR     14   7  73 CALM      30.00R
CEDAR CITY     CLEAR     20  10  65 SW9       30.02S WCI   9
DELTA          CLOUDY    28  23  80 N14       30.04R WCI  17
MILFORD        CLEAR     30  15  53 S5        30.01R WCI  25
MOAB/CYNLANDS  CLEAR     13   9  84 NW3       30.02S
PRICE          LGT SNOW  24  18  77 CALM      29.99S VSB 1
ST GEORGE      CLOUDY    32   7  34 SE6       30.14S WCI  26

$$

REGIONAL REPORTS     COLORADO/ARIZONA

CITY           SKY/WX    TMP DP  RH WIND       PRES   REMARKS
CRAIG, CO      CLOUDY    23  15  71 SW12      29.96S WCI  12
GRAND JUNCTION CLOUDY    22  17  81 NE3       30.03S
RIFLE          CLOUDY    21  12  68 S5        30.02S WCI  15
MONTROSE       CLEAR     21  12  68 CALM      30.03S
CORTEZ         CLEAR     15   9  76 NE7       30.06S WCI   5
PAGE, AZ       CLEAR     32  11  41 SW6       30.05R WCI  26
GRAND CANYON   CLEAR     14   8  77 CALM      30.09S
KINGMAN        CLEAR     30  13  49 S10       30.14S WCI  21
FLAGSTAFF      CLEAR     24   7  48 SW7       30.09S WCI  16

$$

REGIONAL REPORTS    NEVADA/IDAHO/WYOMING

CITY           SKY/WX    TMP DP  RH WIND       PRES   REMARKS
LAS VEGAS, NV  CLEAR     42  13  30 S7        30.09F
ELY            CLEAR     25  16  68 W6        30.01S WCI  18
ELKO           LGT SNOW  26  24  92 S6        30.04F FOG     WCI  19
POCATELLO, ID  FLURRIES  27  24  89 SW10      30.03S WCI  17
BURLEY         CLEAR     26  18  71 W13       30.02F WCI  15
EVANSTON, WY   CLOUDY    15  13  91 SW3       29.95S
ROCK SPRINGS   PTCLDY    11   6  81 W12       29.93S WCI  -3

$$


USA.gov is the U.S. government's official web portal to all federal, state and local government web resources and services.